Simultaneous Nadir Overpasses (SNOs) Predictions

Prediction of SNOs between NPP and PACE Satellite Orbit:

Table of predicted SNOs for the next 14.0 days since TLE Epoch: 10/3/2025
Index Date (NPP) Time (NPP) Lat,Lon (NPP) SZA (NPP ) Date (PACE) Time (PACE) Lat,Lon (PACE) SZA (PACE ) Distance(km) Time Diff (sec)
1 10/04/2025 15:13:37 80.29, -89.95 86.97 10/04/2025 15:14:50 80.30, -89.82 86.93 2.66 73
2 10/04/2025 16:04:14 -80.06, 79.92 93.46 10/04/2025 16:03:54 -80.07, 79.84 93.44 1.42 20
3 10/06/2025 20:30:46 -80.15, 12.33 92.47 10/06/2025 20:30:47 -80.15, 12.46 92.49 2.52 1
4 10/09/2025 00:57:15 -80.16, -54.41 91.64 10/09/2025 00:57:37 -80.16, -54.34 91.66 1.37 22
5 10/09/2025 01:47:55 80.03, 114.35 88.13 10/09/2025 01:46:43 80.03, 114.43 88.14 1.68 72
6 10/11/2025 05:23:45 -80.21,-121.51 90.75 10/11/2025 05:24:27 -80.20,-121.43 90.78 1.60 42
7 10/11/2025 06:14:25 80.08, 47.24 89.02 10/11/2025 06:13:33 80.07, 47.34 89.03 1.87 52
8 10/13/2025 09:50:13 -80.20, 171.94 89.96 10/13/2025 09:51:15 -80.21, 171.78 89.96 3.25 62
9 10/13/2025 10:40:53 80.07, -19.31 89.81 10/13/2025 10:40:21 80.08, -19.45 89.85 3.05 32



Historial Predications of SNOs between NPP and PACE
